Theta_e
313 316 318 319 320 322 323 324 325 327 330 333 335 336 339 339 339 338 336 337 338 337 340 341 341 342 342 342 342 341 340 339 338 339 339 338 338 339 337 336 335 335 333 332 332 331 329 329 327 328 327 329
312 313 315 317 318 319 320 321 322 324 326 328 330 333 336 339 339 338 338 338 337 336 338 338 338 340 342 342 342 342 341 340 340 339 339 339 339 338 337 336 335 333 332 331 330 328 327 326 324 326 324 330
310 312 313 314 315 316 317 319 319 321 323 324 326 328 333 337 338 338 338 337 336 336 337 338 337 337 340 342 341 341 341 341 339 340 339 339 339 338 337 335 335 332 331 329 326 325 324 321 320 319 327 330
309 311 312 312 313 314 315 316 317 318 320 322 323 325 328 334 338 338 338 337 337 335 335 337 336 336 336 341 341 340 339 340 339 340 339 339 338 335 336 335 334 332 329 326 323 322 321 320 319 330 329 331
308 310 311 310 312 312 313 314 315 316 317 321 324 325 329 331 336 337 337 338 338 335 336 332 330 332 335 337 340 341 339 340 338 338 340 338 336 335 335 335 333 330 328 325 323 321 320 319 328 328 329 329
308 309 310 309 309 309 310 312 314 314 315 320 323 324 329 335 336 337 339 338 339 338 336 333 328 330 332 334 336 340 341 338 337 337 338 335 336 335 335 332 331 328 325 323 322 320 317 330 327 327 327 327
308 307 308 307 308 308 309 310 311 312 314 315 318 322 326 333 336 337 337 338 337 338 329 334 329 329 330 332 334 336 339 337 335 334 337 335 334 334 333 332 331 330 328 326 320 321 328 327 327 328 327 326
306 305 306 306 306 307 307 308 309 311 312 313 316 318 322 329 336 335 336 334 334 336 337 335 327 326 327 327 330 331 335 335 334 334 334 334 334 334 332 332 331 330 329 328 328 328 327 328 328 326 326 325
304 305 305 305 305 305 306 307 308 309 309 311 312 315 318 322 333 336 336 334 332 335 337 337 337 336 334 335 336 328 334 337 336 334 334 333 334 335 333 332 330 330 329 328 328 327 327 326 327 326 325 324
304 304 303 303 303 304 305 306 306 307 308 309 311 313 315 318 327 334 334 333 330 331 334 335 335 336 336 336 334 333 332 336 335 333 333 333 335 333 332 331 331 329 326 326 326 326 328 326 326 326 325 325
303 303 303 303 303 303 303 304 305 306 306 307 309 312 315 317 324 334 334 333 334 334 334 334 335 335 335 335 335 335 334 333 335 333 334 334 332 332 331 330 330 330 329 326 326 328 327 327 326 326 326 326
302 302 302 302 303 302 302 303 303 304 305 306 307 310 314 315 319 330 332 332 333 333 334 334 335 336 335 334 335 336 335 334 333 331 333 333 332 331 330 329 329 331 331 329 328 328 328 327 326 326 324 324
302 301 301 301 301 300 302 301 302 303 304 304 305 307 309 312 314 329 334 332 331 332 332 334 334 334 333 333 335 336 334 333 331 330 330 331 331 331 329 329 328 329 328 328 328 328 326 326 325 323 322 321
301 300 299 300 300 300 300 300 301 302 302 303 303 304 306 310 314 324 333 331 331 330 330 331 332 332 334 332 333 334 333 333 330 329 330 331 331 329 328 328 327 328 327 329 327 326 324 323 320 319 317 316
300 300 298 299 299 299 299 299 300 301 301 301 302 302 304 307 313 320 332 331 330 331 331 330 330 330 330 331 332 333 333 334 331 329 330 330 330 328 328 329 326 325 321 320 320 319 316 314 312 309 309 308
300 299 299 300 299 298 299 299 299 300 300 300 301 302 303 305 308 316 323 327 327 327 325 323 321 320 321 322 326 331 332 332 332 331 332 330 329 329 327 324 322 319 312 308 306 305 303 304 303 304 305 305
299 299 299 299 298 298 298 298 298 298 298 299 300 301 302 303 306 312 319 321 320 319 321 320 319 317 317 318 320 324 327 330 330 330 330 330 327 324 321 315 310 308 307 304 304 303 302 303 303 303 302 301
299 299 299 299 298 298 297 297 297 298 298 299 299 300 300 302 305 308 312 317 319 319 318 316 315 315 313 314 317 320 321 322 326 328 326 323 322 315 311 309 307 304 303 303 303 303 302 302 302 302 301 301
299 298 299 298 297 297 296 296 296 297 298 298 298 299 300 300 302 304 307 310 314 315 316 315 314 314 313 313 313 315 316 316 315 316 317 315 309 308 306 305 304 302 301 301 300 301 301 300 300 300 299 299
298 298 299 299 298 296 296 295 295 296 296 297 298 298 298 299 300 301 304 306 309 309 311 312 311 310 310 311 311 311 313 313 313 311 308 309 307 304 302 301 300 301 299 299 298 299 299 298 298 298 297 297
297 297 298 299 298 297 296 296 294 296 296 297 296 297 298 298 299 299 301 303 305 306 307 308 307 308 309 309 309 309 311 312 312 308 305 304 304 302 299 298 298 298 298 296 296 297 296 297 297 296 296 296
296 296 297 298 297 296 295 295 295 295 295 295 296 297 297 297 298 299 299 301 303 304 304 305 305 306 307 307 308 308 309 309 310 309 306 304 304 303 300 298 297 296 296 296 295 295 295 295 295 295 295 296
296 296 297 298 296 294 294 295 295 295 294 294 295 295 296 297 297 298 299 299 300 302 302 303 304 304 305 306 306 306 305 306 305 305 304 302 301 301 300 298 297 296 295 294 294 294 294 295 295 296 296 296
295 295 296 294 293 292 292 293 293 293 293 293 293 294 295 296 296 296 298 298 299 300 300 300 301 302 303 304 306 306 305 304 303 302 300 299 298 296 296 297 296 295 293 292 292 291 292 293 293 293 295 295
293 292 292 294 293 291 292 291 292 292 292 293 293 293 294 295 295 296 297 297 297 298 298 299 300 301 301 303 304 304 303 304 303 302 300 299 298 296 294 294 295 295 294 290 289 292 292 293 294 294 294 293
293 292 291 292 293 292 291 290 290 290 291 292 292 292 292 295 295 295 295 296 296 297 298 298 298 299 300 302 302 302 302 302 302 301 300 299 297 299 295 293 295 296 298 293 290 288 289 289 289 289 289 288
292 292 292 292 292 293 292 293 293 292 291 292 292 292 292 293 294 294 293 294 295 295 296 297 298 298 299 300 301 301 301 301 301 300 300 300 297 295 297 295 297 298 300 292 291 290 289 287 286 287 287 288
294 293 292 292 292 292 291 291 294 294 292 291 291 290 290 291 291 293 293 293 293 295 296 295 297 298 297 297 299 300 300 300 300 300 299 299 297 296 293 295 295 297 300 294 295 293 293 289 287 283 283 284
294 293 293 292 293 293 293 292 290 289 289 289 290 288 288 288 290 291 291 292 291 292 291 292 293 294 294 294 295 297 298 298 298 299 300 300 299 299 296 294 294 295 297 297 296 298 291 290 289 288 285 284
294 292 291 292 290 288 288 288 287 286 286 286 287 286 288 289 289 290 290 290 290 290 290 290 291 291 291 292 292 293 295 296 297 297 299 299 300 299 299 295 293 291 293 293 295 296 299 300 298 287 285 287
293 291 291 291 291 291 289 288 288 288 288 287 288 289 289 289 289 289 290 290 291 291 290 290 290 290 290 290 290 291 291 291 291 292 294 296 298 298 298 296 293 292 291 292 292 293 293 297 299 291 287 291
Wind_Speed
16 18 19 20 20 20 19 18 17 16 15 15 15 16 13 15 16 14 12 15 10 12 12 8 9 10 12 12 14 14 12 11 12 14 14 13 12 12 12 11 10 9 8 8 8 7 5 3 2 2 6 4
17 18 19 20 20 20 19 19 18 17 15 15 16 16 14 13 15 15 15 14 11 9 11 8 7 9 10 12 13 14 13 14 15 14 15 14 13 13 12 12 11 10 9 6 6 6 5 3 2 1 6 5
15 19 19 21 19 19 20 18 19 19 17 15 16 17 16 13 13 13 13 12 11 10 10 9 7 8 9 12 13 15 15 15 15 15 14 14 14 14 13 13 13 11 9 7 7 6 5 3 1 2 5 5
14 16 20 20 19 19 19 19 19 20 19 16 14 16 18 13 11 12 12 13 11 11 9 9 9 9 9 10 13 13 14 14 14 16 14 15 13 13 14 14 13 11 10 9 8 7 6 3 4 5 5 4
13 14 19 16 18 18 17 18 18 19 18 13 10 12 12 12 8 9 8 10 9 10 9 7 7 8 7 9 10 11 12 12 11 13 15 11 12 13 15 15 13 11 10 10 8 7 5 3 4 3 3 5
11 12 15 15 14 13 14 14 17 14 13 14 9 11 11 8 8 6 6 7 9 7 8 8 9 8 8 8 9 10 11 10 12 15 11 11 15 15 15 15 8 7 7 8 8 6 3 3 3 3 4 4
12 13 13 13 12 11 13 13 13 12 12 11 11 8 9 9 8 8 4 3 3 6 7 8 9 9 9 9 9 9 11 11 12 14 12 12 15 14 16 9 6 7 6 4 6 5 3 4 2 2 2 3
12 12 12 12 11 10 10 11 10 11 12 11 11 10 9 9 11 9 6 7 9 9 5 6 8 9 9 7 6 5 7 7 8 8 8 12 11 12 8 6 6 6 6 6 5 5 5 4 3 2 2 3
12 12 11 11 12 11 11 11 10 10 11 10 12 11 8 10 11 10 9 8 6 7 7 5 5 6 5 6 8 4 6 6 6 5 7 7 9 8 8 6 5 6 6 6 6 6 5 4 4 3 3 3
13 12 11 12 12 12 10 10 11 10 10 10 10 8 9 9 11 10 8 8 9 9 6 6 6 7 7 7 7 6 7 6 6 5 5 8 8 9 6 4 3 5 7 7 6 6 5 5 5 4 3 4
12 11 11 11 12 12 11 10 11 10 10 10 11 9 8 8 10 10 9 9 8 8 7 6 6 7 7 7 7 7 7 8 4 4 6 8 8 6 6 6 4 3 4 5 7 5 5 5 5 4 3 3
12 11 12 12 12 11 11 12 10 10 10 11 10 10 8 8 10 10 12 9 9 8 6 6 6 6 5 7 7 7 6 7 5 6 6 7 7 9 6 8 5 4 3 3 4 5 6 6 5 5 4 4
11 12 11 11 11 11 11 10 10 10 11 10 10 10 10 9 9 9 8 8 9 6 7 6 6 5 5 7 5 6 6 5 7 7 8 5 4 5 5 5 5 5 4 4 4 5 5 6 6 5 5 4
12 11 11 11 12 11 10 9 10 11 9 9 9 9 10 10 9 10 9 8 5 6 5 5 4 5 5 5 6 6 6 6 7 7 6 6 5 5 5 4 5 5 5 3 4 5 5 5 6 6 5 5
13 12 11 12 11 10 10 10 11 9 9 9 9 9 12 11 10 11 4 6 5 3 3 1 1 2 2 3 5 6 6 6 8 8 8 7 8 7 7 5 5 6 7 6 5 6 7 6 6 6 6 6
13 12 12 12 11 11 11 11 9 9 9 10 9 10 11 10 11 10 4 6 6 4 4 3 4 4 4 3 3 3 4 5 8 7 6 7 8 7 6 6 7 7 8 8 8 8 9 8 7 7 6 6
12 12 12 11 11 10 11 9 10 9 9 9 10 10 10 9 11 9 5 6 8 5 4 4 4 4 4 4 3 1 3 6 6 6 8 7 6 7 7 8 8 9 8 10 9 9 9 8 9 8 7 7
11 12 11 11 10 10 10 9 10 9 9 9 10 9 11 9 9 8 9 6 7 6 5 5 4 5 6 5 5 4 3 5 4 9 7 6 6 8 8 8 7 10 11 9 9 9 9 9 8 7 8 8
10 11 11 11 10 9 10 9 9 9 8 9 10 10 7 10 9 11 11 9 6 5 3 4 4 6 7 7 8 5 5 9 10 6 7 6 10 9 8 8 8 11 10 9 9 8 8 9 8 8 8 8
8 10 11 11 10 9 10 9 8 9 10 9 8 10 8 10 12 12 10 9 7 6 6 6 6 4 5 7 10 8 5 8 8 9 11 8 6 12 9 10 11 9 10 11 10 7 9 8 8 8 8 9
8 10 11 12 11 9 8 10 10 9 9 9 9 8 6 8 10 10 11 8 9 8 7 6 5 5 6 6 10 9 6 9 5 10 12 10 8 8 12 13 13 9 8 10 9 9 9 8 8 8 8 8
6 8 9 9 9 9 11 10 9 9 7 6 10 9 9 11 10 10 12 9 9 8 8 6 5 8 8 7 8 10 8 9 8 6 11 11 7 5 12 12 10 10 9 9 9 9 9 8 8 8 7 7
6 5 6 6 9 8 7 7 7 9 9 10 7 9 10 12 10 9 9 9 10 9 7 7 8 9 7 6 8 9 10 8 9 10 10 12 10 9 9 8 11 12 12 11 10 10 9 8 9 7 6 6
7 6 6 8 10 11 10 9 8 8 9 10 11 12 12 11 10 8 6 9 11 9 7 6 6 8 7 7 8 9 8 7 9 13 14 10 12 13 12 9 8 9 13 13 12 11 9 9 8 9 7 7
8 8 8 5 7 7 8 9 10 8 9 10 10 11 11 10 7 8 10 12 11 11 9 6 6 6 8 7 9 10 10 8 11 11 12 11 9 13 13 9 7 8 8 13 11 8 9 8 7 7 8 8
7 7 6 5 4 6 6 7 9 10 10 11 9 10 10 10 8 9 10 10 10 9 9 6 5 6 6 9 9 11 11 11 11 11 9 10 11 6 10 9 7 7 4 5 8 8 6 7 7 7 8 8
7 7 6 6 4 4 4 3 4 4 7 7 9 11 11 10 9 9 9 9 9 8 8 8 6 6 6 7 6 8 10 10 9 9 8 6 9 9 6 6 2 0 2 7 8 8 8 5 4 4 6 7
7 6 6 5 4 3 2 2 3 2 5 9 10 11 11 11 11 11 9 10 10 6 6 6 4 4 6 6 6 6 8 8 8 7 7 8 7 10 10 3 3 4 3 7 6 4 2 4 5 6 3 5
7 7 6 5 4 3 2 1 4 4 8 8 8 7 10 10 10 10 10 10 9 6 5 5 6 7 7 7 6 6 7 7 7 6 5 5 5 4 7 7 3 3 2 2 3 3 7 3 1 1 6 6
6 7 7 8 8 8 8 7 8 9 8 8 8 8 7 9 10 10 9 8 5 4 5 7 8 8 7 7 6 6 6 6 6 6 5 3 3 5 4 7 8 6 0 3 3 3 3 1 2 8 7 4
6 6 6 7 7 6 6 6 5 5 5 6 6 5 6 5 7 8 7 7 7 7 7 7 8 8 8 7 7 6 6 6 6 4 4 3 3 4 6 7 8 7 4 2 2 3 3 1 1 8 10 5
Wind_Direction
335 336 337 339 337 333 333 330 324 316 309 308 310 312 282 233 228 218 216 244 253 248 252 226 223 218 221 217 214 212 201 192 203 175 177 179 177 164 159 158 154 149 150 135 130 129 131 121 105 191 269 192
337 337 337 337 336 334 332 327 324 321 313 307 306 307 299 254 239 221 214 222 236 244 249 228 224 220 223 224 219 216 202 194 196 185 181 182 176 168 160 156 151 145 136 118 116 116 109 89 64 169 270 207
333 335 335 335 334 334 330 329 324 323 318 310 309 305 294 262 248 230 224 224 228 233 243 229 223 226 224 227 227 222 214 205 199 194 187 181 178 171 161 155 147 139 127 117 123 114 101 91 112 243 238 204
333 332 335 332 331 333 331 327 326 323 319 310 305 300 285 266 239 227 225 217 224 228 236 239 229 222 225 230 231 229 226 217 213 197 191 186 173 178 160 151 142 137 129 128 123 122 118 125 220 205 210 196
334 327 334 329 332 332 330 328 326 325 319 309 301 300 282 262 247 231 220 213 213 202 213 228 234 238 227 232 238 222 227 227 220 213 195 169 178 186 160 146 136 132 129 133 132 125 129 197 213 177 194 192
333 327 331 332 329 331 329 326 326 324 322 318 308 305 291 249 244 228 231 219 213 205 211 216 225 234 231 230 236 230 215 222 228 215 197 199 189 175 152 136 136 131 124 130 134 128 160 212 162 166 184 188
333 331 330 330 331 328 326 325 323 321 322 318 311 303 300 268 237 228 216 197 218 241 212 213 215 231 233 225 225 230 224 200 204 225 203 203 203 169 142 148 151 145 145 138 137 141 173 144 140 108 154 171
333 335 329 330 330 328 325 324 322 319 320 318 314 313 304 292 240 227 225 210 223 238 223 218 209 215 232 242 244 245 237 203 181 206 218 217 187 148 156 161 166 146 150 154 161 156 150 128 105 124 157 180
335 334 330 331 328 327 324 324 322 320 317 317 316 311 305 299 267 215 216 197 208 231 230 214 217 210 215 222 232 206 233 223 203 192 213 202 184 170 164 163 158 155 150 157 161 153 134 128 129 131 144 162
333 333 335 332 330 328 324 326 322 320 319 317 316 310 303 299 281 227 217 186 197 215 215 214 211 215 213 212 216 206 226 230 200 190 223 200 188 171 154 144 166 160 161 159 157 147 135 138 140 139 138 138
337 338 336 331 330 329 327 327 323 322 321 319 316 309 303 300 291 232 211 199 192 201 200 211 208 218 219 223 221 211 212 222 197 191 202 203 178 128 143 154 165 161 147 152 149 134 141 149 146 140 128 116
339 340 335 333 329 331 326 326 324 321 321 319 317 310 308 302 294 243 207 201 207 197 196 206 207 212 219 232 229 228 224 227 191 173 193 203 162 153 150 156 153 143 129 129 136 146 155 151 147 135 110 107
342 339 336 333 331 329 330 325 324 322 321 321 322 319 315 312 304 255 187 187 201 212 209 204 202 210 214 230 234 225 226 216 198 169 181 176 127 115 136 136 139 144 134 140 162 159 152 152 131 108 99 84
343 340 335 334 332 331 331 328 324 324 325 325 329 326 322 313 307 283 181 175 173 192 211 218 214 217 222 232 234 225 222 197 180 180 173 139 143 135 127 142 135 140 128 124 149 144 132 113 101 93 84 69
342 340 335 334 334 333 335 331 329 329 326 332 333 332 330 328 319 302 200 138 162 155 203 218 153 47 8 259 237 227 226 196 182 182 176 159 162 144 148 138 129 119 100 68 56 68 65 68 76 72 67 66
343 341 337 336 335 336 338 335 337 331 331 337 337 339 337 333 330 313 347 93 83 64 68 71 61 55 62 44 317 235 231 199 197 164 133 158 166 141 128 117 96 77 76 57 47 40 41 43 51 51 49 56
347 341 336 337 337 339 342 341 339 337 335 341 349 351 346 340 330 324 331 76 88 93 102 110 105 84 62 39 3 322 141 184 160 134 163 149 101 90 85 77 71 70 62 66 60 55 45 45 43 40 44 38
353 344 341 342 342 344 348 346 346 340 339 347 354 357 3 343 328 349 7 20 82 106 114 105 92 100 77 54 34 10 79 93 121 147 118 112 90 86 90 93 93 86 72 61 56 60 59 53 45 41 45 41
348 351 347 349 351 353 354 356 349 345 347 354 5 6 9 352 350 8 15 11 42 54 59 84 97 99 98 88 56 13 55 81 65 55 63 73 95 92 81 78 69 85 87 81 65 54 58 58 54 47 50 41
354 3 353 357 359 1 0 5 354 350 352 359 7 16 14 359 6 13 13 12 26 56 59 73 79 73 89 97 97 59 2 72 80 79 68 40 79 105 91 87 75 70 82 81 76 67 65 63 57 52 46 47
360 15 358 357 2 5 3 3 1 351 350 360 14 13 12 6 10 15 13 12 31 47 59 68 74 69 71 84 91 99 73 72 60 92 91 81 50 76 101 90 91 77 73 79 74 72 68 64 70 62 53 51
352 17 358 348 355 9 16 347 356 355 354 351 15 17 25 25 26 19 18 18 26 44 49 56 63 59 53 63 81 89 79 83 82 71 102 105 100 97 103 100 99 96 87 81 79 70 66 63 66 65 61 64
347 15 5 348 351 8 5 352 352 3 7 14 0 14 20 28 29 19 14 25 28 34 36 49 54 57 52 65 81 88 94 93 98 91 81 98 95 70 60 89 105 108 103 92 85 78 71 71 70 70 71 67
351 350 12 3 359 360 1 354 358 2 13 15 18 16 21 23 29 9 13 37 25 20 13 24 40 63 60 63 84 90 94 115 108 109 103 94 100 95 83 75 89 102 105 93 82 81 71 62 63 65 62 60
356 355 351 5 15 355 351 342 347 352 355 16 17 11 12 21 18 12 34 39 31 15 2 16 40 52 71 76 89 94 87 91 108 106 111 111 97 112 109 99 106 98 96 101 86 79 84 79 68 69 64 59
358 356 356 343 351 347 335 354 356 351 356 5 9 12 19 17 10 12 38 40 35 15 359 8 40 53 59 78 84 91 92 90 96 99 99 114 108 80 110 118 138 149 127 66 121 127 103 85 85 74 69 68
3 351 348 345 348 1 330 305 347 337 346 348 13 16 16 16 15 18 31 42 42 27 348 357 31 51 49 53 69 85 95 98 88 87 91 85 110 107 44 96 80 182 305 126 118 117 110 128 107 73 68 62
353 351 339 338 337 345 348 315 306 324 3 17 17 21 17 12 13 16 18 26 32 13 332 326 343 31 49 55 52 76 85 79 79 82 87 100 104 118 123 111 61 358 74 122 133 123 48 137 122 114 91 90
346 342 340 339 332 323 326 316 354 346 17 18 8 9 19 13 11 21 25 23 22 6 339 356 19 38 48 51 46 60 75 76 76 75 86 98 118 122 132 124 114 55 12 22 334 126 127 95 227 145 131 124
351 354 355 355 6 8 6 8 7 13 360 352 8 11 1 16 16 18 29 29 16 5 7 20 22 28 40 43 40 48 67 80 83 82 98 85 107 107 96 123 120 133 123 8 8 6 353 41 219 146 171 163
350 7 5 5 1 2 2 2 14 1 354 350 355 6 20 28 26 23 26 25 23 26 31 33 33 35 38 37 37 41 57 64 65 68 69 89 104 115 124 133 128 146 142 126 47 33 358 143 139 143 149 174